CW7701 Weather Reports


time (UTC)temp
C
wind
direction
speed
KPH
gust
KPH
rain 1hr
cm
rain 24hr
cm
rain mn
cm
humidity
%
barometer
mb
20260901161546 30 54 1.6 4.8 0.00 0.61 0.03 67 1012.7
20260901160049 29 54 0.0 4.8 0.00 0.61 0.03 70 1012.7
20260901154534 28 47 1.6 3.2 0.00 0.61 0.03 75 1012.8
20260901153032 27 47 0.0 3.2 0.00 0.61 0.03 78 1012.8
20260901151525 26 47 1.6 4.8 0.00 0.61 0.03 80 1012.6
20260901150024 26 47 1.6 4.8 0.00 0.61 0.03 83 1012.4
20260901144520 26 47 0.0 4.8 0.00 0.61 0.03 85 1012.4
20260901143020 25 47 1.6 6.4 0.03 0.61 0.03 86 1012.2
20260901141519 25 74 1.6 4.8 0.03 0.61 0.03 88 1012.2
20260901140018 25 315 0.0 4.8 0.03 0.61 0.03 88 1011.9
20260901134531 25 315 1.6 4.8 0.03 0.61 0.03 87 1011.7
20260901133018 25 315 1.6 4.8 0.00 0.58 0.00 87 1011.7
20260901131517 25 315 1.6 4.8 0.00 0.58 0.00 87 1011.6
20260901130015 25 315 0.0 6.4 0.00 0.58 0.00 87 1011.7
20260901124519 25 315 0.0 6.4 0.00 0.58 0.00 87 1011.5
20260901123015 25 315 3.2 8.0 0.00 0.58 0.00 87 1011.5
20260901121515 25 315 1.6 8.0 0.00 0.58 0.00 87 1011.5
20260901120012 25 315 0.0 4.8 0.00 0.58 0.00 87 1011.3
20260901114511 25 314 0.0 3.2 0.00 0.58 0.00 87 1011.2
20260901113016 25 315 1.6 6.4 0.00 0.58 0.00 87 1011.2
20260901111510 25 315 1.6 4.8 0.00 0.58 0.00 87 1011.1
20260901110010 25 315 0.0 4.8 0.00 0.58 0.00 87 1011.2
20260901104509 25 314 1.6 6.4 0.00 0.58 0.00 87 1011.1
20260901103008 25 315 0.0 4.8 0.00 0.58 0.00 87 1011.3
20260901101507 25 315 0.0 3.2 0.00 0.58 0.00 87 1011.1
20260901100007 25 315 0.0 3.2 0.00 0.58 0.00 86 1011.5
20260901094503 25 315 0.0 4.8 0.00 0.58 0.00 86 1011.5
20260901093124 25 314 3.2 6.4 0.00 0.58 0.00 86 1011.6
20260901091559 25 315 1.6 3.2 0.00 0.58 0.00 87 1011.7
20260901084559 25 315 1.6 8.0 0.00 0.58 0.00 86 1011.7
20260901083053 26 315 1.6 6.4 0.00 0.58 0.00 86 1011.8
20260901081557 26 315 0.0 6.4 0.00 0.58 0.00 86 1011.9
20260901080050 26 314 1.6 3.2 0.00 0.58 0.00 85 1012.1
20260901074547 26 315 0.0 3.2 0.00 0.58 0.00 85 1012.2
20260901073050 26 315 1.6 3.2 0.00 0.58 0.00 85 1012.3
20260901071544 26 315 1.6 6.4 0.00 0.58 0.00 85 1012.4
20260901070053 26 315 1.6 6.4 0.00 0.58 0.00 86 1012.4
20260901064539 26 315 1.6 6.4 0.00 0.58 0.58 86 1012.5
20260901063045 26 315 1.6 4.8 0.00 0.58 0.58 86 1012.5
20260901061538 26 315 1.6 6.4 0.00 0.58 0.58 86 1012.5
20260901060041 26 315 0.0 6.4 0.00 0.58 0.58 85 1012.2
20260901054536 26 315 1.6 6.4 0.00 0.58 0.58 85 1012.2
20260901053101 26 315 0.0 4.8 0.00 0.58 0.58 85 1012.2
20260901051536 27 314 1.6 4.8 0.00 0.58 0.58 85 1012.2
20260901050035 27 314 1.6 4.8 0.00 0.58 0.58 84 1012.2
20260901044548 27 314 0.0 4.8 0.00 0.58 0.58 83 1012.2
20260901043039 27 314 1.6 6.4 0.00 0.58 0.58 83 1012.1
20260901041535 27 314 1.6 6.4 0.00 0.58 0.58 83 1012.1
20260901040033 27 314 1.6 6.4 0.00 0.58 0.58 82 1011.9
20260901034533 27 315 1.6 4.8 0.00 0.58 0.58 82 1011.7
20260901033040 27 315 1.6 3.2 0.00 0.58 0.58 82 1011.4
20260901031532 27 315 1.6 4.8 0.00 0.58 0.58 82 1011.2
20260901030030 27 315 1.6 4.8 0.00 0.58 0.58 82 1011.1
20260901024530 27 314 0.0 3.2 0.00 0.58 0.58 81 1011.0
20260901023032 27 315 0.0 3.2 0.00 0.58 0.58 81 1010.9
20260901021536 27 315 0.0 4.8 0.00 0.58 0.58 80 1010.6
20260901020049 27 314 1.6 3.2 0.00 0.58 0.58 81 1010.5
20260901014526 27 315 1.6 4.8 0.00 0.58 0.58 81 1010.3
20260901013026 27 315 0.0 6.4 0.00 0.58 0.58 81 1010.2
20260901011535 27 314 1.6 4.8 0.00 0.58 0.58 81 1010.2
20260901010025 27 315 1.6 8.0 0.00 0.58 0.58 81 1009.9
20260901004524 27 315 1.6 8.0 0.00 0.58 0.58 81 1009.7
20260901003023 27 314 3.2 8.0 0.00 0.58 0.58 81 1009.7
20260901001526 27 309 3.2 8.0 0.00 0.58 0.58 82 1009.7
20260901000023 27 307 1.6 8.0 0.00 0.58 0.58 84 1009.8
20260831234522 26 306 1.6 8.0 0.00 0.58 0.58 86 1009.7
20260831233035 26 322 3.2 8.0 0.00 0.58 0.58 88 1009.5
20260831231521 26 318 1.6 8.0 0.00 0.58 0.58 89 1009.7
20260831230017 25 322 3.2 9.7 0.00 0.58 0.58 89 1009.9
20260831224517 25 312 3.2 9.7 0.00 0.58 0.58 90 1010.1
20260831223017 25 5 4.8 14.5 0.00 0.58 0.58 90 1010.3
20260831221516 25 327 3.2 8.0 0.00 0.58 0.58 90 1010.3
20260831220016 25 355 4.8 17.7 0.15 0.58 0.58 89 1010.5
20260831214517 25 50 1.6 8.0 0.28 0.58 0.58 88 1010.7
20260831213019 25 351 3.2 14.5 0.48 0.58 0.58 88 1011.0
20260831211511 25 284 11.3 20.9 0.58 0.58 0.58 87 1011.5
20260831210006 25 304 6.4 20.9 0.43 0.43 0.43 85 1012.0
20260831204505 26 305 9.7 19.3 0.30 0.30 0.30 80 1012.5
20260831203059 30 43 11.3 30.6 0.10 0.10 0.10 68 1012.2
20260831201559 36 60 8.0 22.5 0.00 0.00 0.00 49 1011.7
20260831200056 37 170 9.7 17.7 0.00 0.00 0.00 54 1011.0
20260831194628 36 148 4.8 14.5 0.00 0.00 0.00 56 1011.2
20260831193050 36 113 8.0 14.5 0.00 0.00 0.00 55 1011.6
20260831191544 36 138 3.2 11.3 0.00 0.00 0.00 54 1011.7
20260831190045 35 139 8.0 16.1 0.00 0.00 0.00 54 1011.8
20260831184605 35 207 3.2 9.7 0.00 0.00 0.00 54 1012.2
20260831183038 32 267 3.2 6.4 0.00 0.00 0.00 52 1012.3
20260831181530 30 306 3.2 6.4 0.00 0.00 0.00 58 1012.6
20260831180034 30 306 3.2 6.4 0.00 0.00 0.00 61 1012.6
20260831174526 29 346 3.2 6.4 0.00 0.00 0.00 62 1012.6
20260831173032 28 355 3.2 8.0 0.00 0.00 0.00 63 1012.7
20260831171523 28 77 3.2 12.9 0.00 0.00 0.00 68 1012.7
20260831170022 29 88 8.0 29.0 0.00 0.00 0.00 65 1012.8
20260831164521 30 79 9.7 22.5 0.00 0.00 0.00 61 1012.7
20260831163019 32 105 1.6 6.4 0.00 0.00 0.00 66 1012.2